Total_Precipitation_Accumulation
0.74 0.92 1.18 1.51 1.72 1.83 2.04 2.16 2.37 2.55 2.59 2.49 2.18 1.83 1.60 1.53 1.48 1.34 1.20 1.12 1.06 1.02 1.01 0.99 0.91 0.83 0.74 0.66 0.62 0.61 0.60 0.59 0.62 0.62 0.51 0.40 0.34 0.29 0.24 0.21 0.19 0.16 0.14
0.58 0.73 1.03 1.23 1.42 1.60 1.74 1.96 2.04 2.29 2.35 2.28 2.23 2.06 1.95 1.84 1.73 1.63 1.43 1.30 1.25 1.15 1.06 1.01 0.99 0.92 0.85 0.81 0.81 0.78 0.73 0.68 0.70 0.75 0.73 0.59 0.47 0.35 0.26 0.24 0.23 0.22 0.22
0.47 0.60 0.82 1.03 1.14 1.33 1.59 1.70 1.77 2.00 2.22 2.30 2.43 2.51 2.45 2.14 1.87 1.70 1.61 1.49 1.42 1.33 1.20 1.09 1.08 1.06 0.96 0.88 0.91 0.94 0.93 0.93 0.92 0.89 1.00 0.89 0.64 0.47 0.34 0.28 0.26 0.26 0.28
0.42 0.48 0.57 0.75 0.88 1.01 1.33 1.65 1.78 1.91 2.11 2.38 2.38 2.32 2.20 1.98 1.72 1.70 1.75 1.71 1.61 1.51 1.36 1.27 1.20 1.18 1.14 1.06 1.07 1.09 1.13 1.17 1.15 1.10 1.04 0.98 0.83 0.77 0.57 0.36 0.30 0.28 0.26
0.46 0.45 0.48 0.60 0.73 0.84 1.07 1.36 1.62 1.85 2.05 2.18 2.23 2.28 2.13 1.96 1.90 1.83 1.79 1.70 1.59 1.54 1.46 1.40 1.37 1.33 1.31 1.30 1.33 1.31 1.29 1.28 1.26 1.22 1.18 1.18 1.07 0.95 0.89 0.65 0.45 0.41 0.37
0.48 0.45 0.45 0.54 0.67 0.73 0.87 1.08 1.33 1.51 1.72 1.93 2.03 2.09 2.08 2.08 2.02 1.84 1.75 1.75 1.72 1.64 1.54 1.52 1.52 1.52 1.49 1.46 1.44 1.45 1.48 1.46 1.41 1.38 1.29 1.25 1.21 1.08 1.09 0.99 0.74 0.67 0.57
0.40 0.40 0.43 0.50 0.60 0.67 0.77 0.87 0.99 1.12 1.29 1.48 1.64 1.74 1.85 1.96 1.89 1.78 1.64 1.62 1.61 1.56 1.51 1.48 1.52 1.58 1.56 1.56 1.58 1.58 1.53 1.56 1.57 1.54 1.49 1.40 1.29 1.22 1.27 1.31 1.11 0.93 0.75
0.40 0.38 0.38 0.43 0.52 0.57 0.65 0.73 0.80 0.88 1.02 1.15 1.28 1.44 1.59 1.77 1.76 1.73 1.58 1.46 1.42 1.42 1.49 1.43 1.37 1.40 1.47 1.51 1.52 1.52 1.49 1.49 1.47 1.45 1.45 1.44 1.34 1.33 1.37 1.46 1.56 1.47 1.16
0.40 0.38 0.37 0.38 0.46 0.50 0.54 0.63 0.75 0.80 0.88 1.00 1.12 1.24 1.34 1.45 1.52 1.58 1.60 1.46 1.38 1.38 1.39 1.34 1.27 1.20 1.21 1.29 1.38 1.39 1.38 1.39 1.39 1.37 1.37 1.40 1.36 1.38 1.42 1.52 1.70 1.90 1.72
0.40 0.37 0.38 0.42 0.46 0.47 0.48 0.56 0.71 0.75 0.77 0.84 0.93 1.02 1.12 1.27 1.36 1.39 1.40 1.36 1.33 1.34 1.32 1.25 1.17 1.11 1.07 1.07 1.14 1.17 1.16 1.20 1.20 1.22 1.25 1.25 1.24 1.29 1.35 1.42 1.50 1.67 1.77
0.41 0.40 0.44 0.50 0.53 0.48 0.50 0.56 0.63 0.73 0.79 0.79 0.84 0.88 0.89 0.97 1.12 1.23 1.25 1.26 1.24 1.23 1.22 1.18 1.14 1.08 1.02 0.97 0.96 0.95 0.98 1.05 1.06 1.09 1.11 1.08 1.06 1.13 1.17 1.23 1.30 1.39 1.50
0.37 0.42 0.49 0.52 0.52 0.54 0.57 0.60 0.62 0.68 0.78 0.80 0.80 0.84 0.86 0.86 0.95 1.04 1.14 1.21 1.28 1.21 1.18 1.15 1.10 1.05 1.00 0.96 0.94 0.89 0.89 0.93 0.96 0.99 1.04 1.03 1.00 1.02 1.06 1.12 1.12 1.13 1.17
0.35 0.36 0.43 0.49 0.50 0.54 0.63 0.67 0.70 0.70 0.71 0.73 0.74 0.74 0.74 0.75 0.81 0.88 0.97 1.04 1.13 1.14 1.11 1.11 1.06 0.98 0.94 0.93 0.90 0.86 0.86 0.88 0.87 0.89 0.97 1.02 1.05 1.05 1.06 1.07 1.07 1.06 1.09
0.33 0.35 0.40 0.44 0.47 0.52 0.57 0.57 0.65 0.67 0.67 0.66 0.71 0.72 0.68 0.68 0.74 0.83 0.88 0.92 0.97 1.04 1.03 1.05 1.09 1.08 1.02 0.98 0.96 0.92 0.88 0.90 0.89 0.89 0.93 0.98 1.01 0.99 0.96 0.99 0.97 1.00 1.05
0.30 0.34 0.37 0.40 0.43 0.41 0.41 0.44 0.50 0.56 0.59 0.60 0.67 0.71 0.72 0.76 0.86 0.90 0.86 0.86 0.88 0.94 0.98 0.98 1.04 1.07 1.07 1.05 1.04 1.01 1.00 1.02 1.03 1.00 0.96 0.95 0.99 0.98 0.95 0.95 0.95 0.98 1.05
0.24 0.25 0.30 0.36 0.38 0.37 0.36 0.37 0.40 0.45 0.46 0.48 0.53 0.60 0.67 0.76 0.86 0.93 0.91 0.87 0.85 0.90 0.97 0.96 1.01 1.09 1.11 1.24 1.21 1.12 1.09 1.08 1.05 0.99 0.91 0.88 0.91 0.91 0.94 0.95 0.95 1.02 1.12
0.18 0.19 0.22 0.28 0.29 0.29 0.31 0.34 0.35 0.39 0.42 0.41 0.43 0.49 0.61 0.72 0.78 0.83 0.88 0.89 0.90 0.99 1.08 1.09 1.10 1.17 1.28 1.34 1.16 1.10 1.01 1.00 0.96 0.89 0.84 0.80 0.77 0.81 0.76 0.81 0.88 0.92 1.03
0.14 0.15 0.18 0.21 0.21 0.22 0.24 0.25 0.27 0.33 0.41 0.45 0.47 0.50 0.57 0.67 0.78 0.82 0.88 0.93 0.96 1.04 1.13 1.18 1.20 1.22 1.25 1.27 1.16 1.06 0.90 0.86 0.83 0.78 0.73 0.72 0.71 0.72 0.78 0.85 0.91 0.84 0.80
0.14 0.14 0.16 0.17 0.16 0.18 0.21 0.21 0.22 0.27 0.35 0.42 0.47 0.47 0.52 0.62 0.73 0.83 0.91 0.96 0.99 1.05 1.10 1.09 1.07 1.04 1.06 1.06 0.97 0.96 0.85 0.84 0.77 0.71 0.71 0.71 0.68 0.76 0.90 0.95 0.97 0.84 0.71
0.17 0.17 0.16 0.16 0.16 0.18 0.20 0.23 0.25 0.29 0.36 0.39 0.44 0.46 0.49 0.57 0.67 0.77 0.87 0.92 0.93 0.93 0.93 0.92 0.87 0.85 0.87 0.93 0.85 0.85 0.83 0.83 0.77 0.72 0.71 0.77 0.76 0.85 0.97 0.92 0.92 0.85 0.70
0.17 0.22 0.24 0.25 0.26 0.28 0.29 0.30 0.31 0.34 0.37 0.40 0.45 0.48 0.51 0.56 0.64 0.69 0.73 0.75 0.73 0.71 0.70 0.69 0.67 0.66 0.70 0.76 0.74 0.75 0.77 0.78 0.79 0.78 0.71 0.71 0.86 0.95 0.98 0.89 0.74 0.75 0.82
0.17 0.22 0.27 0.29 0.31 0.33 0.35 0.35 0.37 0.39 0.40 0.42 0.46 0.50 0.52 0.51 0.52 0.54 0.58 0.56 0.55 0.55 0.54 0.54 0.56 0.57 0.60 0.65 0.69 0.73 0.78 0.82 0.77 0.73 0.67 0.69 0.86 0.85 0.81 0.75 0.76 0.84 0.79
0.16 0.19 0.23 0.24 0.25 0.30 0.36 0.39 0.40 0.39 0.38 0.41 0.42 0.43 0.43 0.42 0.43 0.43 0.44 0.46 0.48 0.49 0.51 0.51 0.52 0.54 0.55 0.58 0.67 0.68 0.75 0.80 0.73 0.70 0.74 0.78 0.79 0.72 0.68 0.71 0.75 0.72 0.68
0.13 0.14 0.16 0.18 0.19 0.21 0.25 0.30 0.32 0.31 0.29 0.32 0.31 0.31 0.31 0.33 0.34 0.35 0.36 0.39 0.41 0.42 0.43 0.46 0.46 0.46 0.48 0.48 0.53 0.60 0.65 0.71 0.69 0.72 0.74 0.71 0.68 0.66 0.67 0.71 0.69 0.64 0.69
0.14 0.12 0.11 0.12 0.13 0.14 0.16 0.20 0.22 0.23 0.23 0.24 0.23 0.23 0.24 0.29 0.33 0.33 0.34 0.37 0.39 0.43 0.45 0.43 0.43 0.45 0.46 0.49 0.60 0.65 0.63 0.68 0.71 0.70 0.61 0.57 0.59 0.61 0.60 0.60 0.63 0.65 0.69
0.15 0.12 0.11 0.12 0.12 0.13 0.13 0.14 0.17 0.21 0.22 0.22 0.21 0.22 0.20 0.24 0.31 0.35 0.35 0.39 0.42 0.47 0.51 0.50 0.46 0.44 0.48 0.53 0.58 0.61 0.67 0.72 0.72 0.64 0.57 0.55 0.55 0.56 0.58 0.58 0.60 0.64 0.69